• In Hungary
  • List of Countries
  • For 7 days
  • Water Temperature
  • Satellite Maps
  • Weather Map
  • News
  • Weather Widgets
  • user-avatar
    Login

    Hourly Weather Benicarlo

    Today, 23 September, Sunday

    Time Temperature Precipitation Wind Pressure Humidity
    00:00 +28°C° 0 mm 2 mps 766 mmHg 53%
    01:00 +28°C° 0 mm 2 mps 766 mmHg 53%
    02:00 +28°C° 0 mm 2 mps 766 mmHg 52%
    03:00 +28°C° 0 mm 2 mps 765 mmHg 52%
    04:00 +27°C° 0 mm 1 mps 765 mmHg 52%
    05:00 +27°C° 0 mm 1 mps 765 mmHg 53%
    06:00 +27°C° 0 mm 1 mps 765 mmHg 55%
    07:00 +28°C° 0 mm 1 mps 766 mmHg 52%
    08:00 +29°C° 0 mm 1 mps 766 mmHg 48%
    09:00 +31°C° 0 mm 1 mps 766 mmHg 45%
    10:00 +32°C° 0 mm 2 mps 766 mmHg 43%
    11:00 +34°C° 0 mm 2 mps 765 mmHg 41%
    12:00 +34°C° 0 mm 3 mps 765 mmHg 42%
    13:00 +35°C° 0 mm 3 mps 765 mmHg 41%
    14:00 +35°C° 0 mm 4 mps 764 mmHg 41%
    15:00 +35°C° 0 mm 4 mps 764 mmHg 40%
    16:00 +34°C° 0 mm 4 mps 764 mmHg 46%
    17:00 +32°C° 0 mm 4 mps 764 mmHg 51%
    18:00 +30°C° 0 mm 3 mps 763 mmHg 56%
    19:00 +30°C° 0 mm 3 mps 764 mmHg 55%
    20:00 +30°C° 0 mm 3 mps 764 mmHg 54%
    21:00 +29°C° 0 mm 4 mps 765 mmHg 53%
    22:00 +29°C° 0 mm 4 mps 765 mmHg 53%
    23:00 +29°C° 0 mm 4 mps 765 mmHg 53%

    Tomorrow, 24 September, Monday

    Time Temperature Precipitation Wind Pressure Humidity
    00:00 +28°C° 0 mm 4 mps 765 mmHg 53%
    01:00 +28°C° 0 mm 4 mps 765 mmHg 54%
    02:00 +27°C° 0 mm 4 mps 765 mmHg 55%
    03:00 +27°C° 0 mm 4 mps 765 mmHg 57%
    04:00 +27°C° 0 mm 5 mps 765 mmHg 60%
    05:00 +26°C° 0 mm 5 mps 765 mmHg 62%
    06:00 +26°C° 0 mm 6 mps 765 mmHg 65%
    07:00 +27°C° 0 mm 6 mps 765 mmHg 61%
    08:00 +28°C° 0 mm 6 mps 765 mmHg 56%
    09:00 +29°C° 0 mm 6 mps 766 mmHg 52%
    10:00 +30°C° 0 mm 6 mps 765 mmHg 48%
    11:00 +32°C° 0 mm 6 mps 765 mmHg 44%
    12:00 +33°C° 0 mm 6 mps 765 mmHg 39%
    13:00 +33°C° 0 mm 6 mps 765 mmHg 38%
    14:00 +33°C° 0 mm 6 mps 764 mmHg 37%
    15:00 +33°C° 0 mm 5 mps 764 mmHg 36%
    16:00 +32°C° 0 mm 5 mps 764 mmHg 39%
    17:00 +29°C° 0 mm 4 mps 764 mmHg 42%
    18:00 +28°C° 0 mm 3 mps 764 mmHg 45%
    19:00 +27°C° 0.1 mm 3 mps 765 mmHg 45%
    20:00 +26°C° 0.1 mm 3 mps 766 mmHg 45%
    21:00 +25°C° 0.1 mm 3 mps 766 mmHg 45%
    22:00 +25°C° 0 mm 4 mps 766 mmHg 46%
    23:00 +23°C° 0 mm 4 mps 767 mmHg 46%

    Day after tomorrow, 25 September, Tuesday

    Time Temperature Precipitation Wind Pressure Humidity
    00:00 +23°C° 0 mm 5 mps 767 mmHg 47%
    01:00 +23°C° 0 mm 5 mps 767 mmHg 46%
    02:00 +22°C° 0 mm 4 mps 767 mmHg 45%
    03:00 +22°C° 0 mm 4 mps 767 mmHg 44%
    04:00 +22°C° 0 mm 4 mps 767 mmHg 45%
    05:00 +22°C° 0 mm 4 mps 767 mmHg 47%
    06:00 +21°C° 0 mm 4 mps 767 mmHg 48%
    07:00 +22°C° 0 mm 4 mps 768 mmHg 48%
    08:00 +22°C° 0 mm 4 mps 768 mmHg 48%
    09:00 +23°C° 0 mm 4 mps 768 mmHg 49%
    10:00 +23°C° 0 mm 4 mps 768 mmHg 49%
    11:00 +25°C° 0 mm 4 mps 768 mmHg 50%
    12:00 +25°C° 0 mm 4 mps 768 mmHg 51%
    13:00 +26°C° 0 mm 4 mps 768 mmHg 52%
    14:00 +26°C° 0 mm 5 mps 768 mmHg 54%
    15:00 +26°C° 0 mm 5 mps 767 mmHg 55%
    16:00 +26°C° 0 mm 5 mps 768 mmHg 60%
    17:00 +25°C° 0 mm 5 mps 768 mmHg 64%
    18:00 +23°C° 0 mm 5 mps 768 mmHg 69%
    19:00 +23°C° 0.1 mm 5 mps 768 mmHg 71%
    20:00 +23°C° 0.1 mm 6 mps 769 mmHg 74%
    21:00 +23°C° 0.1 mm 6 mps 770 mmHg 76%
    22:00 +23°C° 0.1 mm 6 mps 769 mmHg 76%
    23:00 +23°C° 0.1 mm 6 mps 769 mmHg 76%

    26 September, Wednesday

    Time Temperature Precipitation Wind Pressure Humidity
    00:00 +23°C° 0.1 mm 6 mps 769 mmHg 76%
    01:00 +22°C° 0.1 mm 6 mps 769 mmHg 76%
    02:00 +22°C° 0.1 mm 6 mps 769 mmHg 77%
    03:00 +22°C° 0.1 mm 6 mps 769 mmHg 77%
    04:00 +22°C° 0.1 mm 6 mps 769 mmHg 76%
    05:00 +22°C° 0.1 mm 6 mps 769 mmHg 76%
    06:00 +22°C° 0.1 mm 6 mps 769 mmHg 76%
    07:00 +22°C° 0.1 mm 7 mps 770 mmHg 73%
    08:00 +23°C° 0.1 mm 7 mps 770 mmHg 70%
    09:00 +24°C° 0.1 mm 8 mps 770 mmHg 67%
    10:00 +24°C° 0.2 mm 8 mps 770 mmHg 65%
    11:00 +26°C° 0.2 mm 8 mps 770 mmHg 63%
    12:00 +26°C° 0.2 mm 8 mps 770 mmHg 61%
    13:00 +26°C° 0.2 mm 8 mps 770 mmHg 62%
    14:00 +26°C° 0.2 mm 7 mps 770 mmHg 62%
    15:00 +26°C° 0.2 mm 7 mps 769 mmHg 62%
    16:00 +26°C° 0.3 mm 7 mps 769 mmHg 67%
    17:00 +24°C° 0.3 mm 6 mps 770 mmHg 71%
    18:00 +24°C° 0.3 mm 6 mps 770 mmHg 76%
    19:00 +25°C° 0.5 mm 5 mps 770 mmHg 78%
    20:00 +25°C° 0.5 mm 5 mps 771 mmHg 79%
    21:00 +23°C° 0.5 mm 5 mps 771 mmHg 81%
    22:00 +23°C° 0.7 mm 5 mps 771 mmHg 81%
    23:00 +23°C° 0.7 mm 4 mps 771 mmHg 82%

    27 September, Thursday

    Time Temperature Precipitation Wind Pressure Humidity
    00:00 +23°C° 0.7 mm 4 mps 770 mmHg 82%
    01:00 +23°C° 0.6 mm 4 mps 770 mmHg 83%
    02:00 +23°C° 0.6 mm 4 mps 770 mmHg 83%
    03:00 +23°C° 0.6 mm 4 mps 770 mmHg 84%
    04:00 +24°C° 0.6 mm 3 mps 770 mmHg 84%
    05:00 +24°C° 0.6 mm 3 mps 770 mmHg 84%
    06:00 +24°C° 0.6 mm 3 mps 770 mmHg 83%
    07:00 +24°C° 0.2 mm 3 mps 770 mmHg 81%
    08:00 +25°C° 0.2 mm 3 mps 770 mmHg 79%
    09:00 +25°C° 0.2 mm 3 mps 770 mmHg 77%
    10:00 +26°C° 0.1 mm 3 mps 770 mmHg 73%
    11:00 +27°C° 0.1 mm 3 mps 769 mmHg 70%
    12:00 +27°C° 0.1 mm 3 mps 769 mmHg 66%
    13:00 +28°C° 0 mm 3 mps 769 mmHg 65%
    14:00 +28°C° 0 mm 3 mps 768 mmHg 64%
    15:00 +28°C° 0 mm 2 mps 767 mmHg 63%
    16:00 +28°C° 0 mm 2 mps 767 mmHg 66%
    17:00 +27°C° 0 mm 2 mps 767 mmHg 69%
    18:00 +26°C° 0 mm 2 mps 767 mmHg 72%
    19:00 +26°C° 0 mm 2 mps 767 mmHg 74%
    20:00 +25°C° 0 mm 2 mps 767 mmHg 76%
    21:00 +25°C° 0 mm 2 mps 767 mmHg 78%
    22:00 +24°C° 0 mm 2 mps 767 mmHg 79%
    23:00 +24°C° 0 mm 2 mps 767 mmHg 80%

    28 September, Friday

    Time Temperature Precipitation Wind Pressure Humidity
    00:00 +24°C° 0 mm 2 mps 766 mmHg 80%
    01:00 +24°C° 0 mm 2 mps 766 mmHg 81%
    02:00 +23°C° 0 mm 2 mps 766 mmHg 81%
    03:00 +23°C° 0 mm 2 mps 765 mmHg 81%
    04:00 +23°C° 0 mm 2 mps 765 mmHg 81%
    05:00 +23°C° 0 mm 2 mps 765 mmHg 81%
    06:00 +23°C° 0 mm 2 mps 765 mmHg 81%
    07:00 +24°C° 0 mm 2 mps 765 mmHg 74%
    08:00 +26°C° 0 mm 2 mps 765 mmHg 67%
    09:00 +28°C° 0 mm 2 mps 765 mmHg 60%
    10:00 +28°C° 0 mm 2 mps 764 mmHg 57%
    11:00 +29°C° 0 mm 3 mps 764 mmHg 53%
    12:00 +30°C° 0 mm 3 mps 764 mmHg 50%
    13:00 +30°C° 0 mm 3 mps 763 mmHg 50%
    14:00 +30°C° 0 mm 3 mps 762 mmHg 51%
    15:00 +30°C° 0 mm 4 mps 762 mmHg 51%
    16:00 +29°C° 0 mm 4 mps 762 mmHg 56%
    17:00 +28°C° 0 mm 4 mps 762 mmHg 61%
    18:00 +27°C° 0 mm 3 mps 762 mmHg 66%
    19:00 +27°C° 0 mm 3 mps 762 mmHg 68%
    20:00 +26°C° 0 mm 3 mps 762 mmHg 69%
    21:00 +26°C° 0 mm 3 mps 763 mmHg 70%
    22:00 +26°C° 0 mm 3 mps 762 mmHg 69%
    23:00 +26°C° 0 mm 3 mps 762 mmHg 69%
    Show more